Regional Weather Roundup
Issued by NWS

Home | Current Version | Previous Version | Text Only | Print | Product List | Glossary On
Versions: 1 2 3 4 5 6 7 8 9 10 11 12 13 14 15 16 17 18 19 20 21 22 23 24 25 26 27 28 29 30 31 32 33 34 35 36 37 38 39 40 41 42 43 44 45 46 47 48 49 50
000
ASUS42 KTBW 041517
RWRFL
FLORIDA REGIONAL WEATHER ROUNDUP
NATIONAL WEATHER SERVICE TAMPA BAY RUSKIN FL
1100 AM EDT FRI SEP 04 2015

NOTE: "FAIR" INDICATES FEW OR NO CLOUDS BELOW 12,000 FEET WITH NO
SIGNIFICANT WEATHER AND/OR OBSTRUCTIONS TO VISIBILITY.


FLZ001>010-012>015-112-114-115-041600-
PANHANDLE FLORIDA

CITY           SKY/WX    TMP DP  RH WIND       PRES   REMARKS
PENSACOLA      SUNNY     84  74  71 VRB6      30.01S
PENSACOLA NAS  MOSUNNY   86  74  67 VRB5      30.00S
MILTON NAS     MOSUNNY   84  73  69 N6        30.02
CRESTVIEW      SUNNY     84  74  71 NW6       30.03R
DUKE FIELD     FAIR      83  73  71 N5        30.00S
VALPARAISO     MOSUNNY   87  72  61 N7        30.00S
MARY ESTHER    SUNNY     85  71  61 VRB6      29.99S
PANAMA CITY    FAIR      86  74  67 N8        29.99F
TYNDALL AFB    SUNNY     86  75  68 N7        30.00S
APALACHICOLA   SUNNY     86  75  69 NW8       30.00R HX  95

STATION/POSITION SKY/WX   TEMP    WIND        PRES    WAVE   SWELL
                          AIR SEA DIR/SP/G            HT/PER HT/PER
                          (F)     (DEG/KT/KT) (MB)    (FT/S) (FT/S)
30.1N   87.6W              82 85   40/  6/  8 1015.5R   1/ 4
29.2N   88.2W              82 85  260/  8/ 10 1016.7R   1/ 6
28.8N   86.0W              84 85  320/  8/  8 1016.6R   1/ 4
PANAMA CITY BEAC           82 84  360/  6/  8 1015.7F
CAPE SAN BLAS    NOT AVBL
TOWER C                    81     350/  8/  9 1016.2R
28.5N   84.5W              85 86  330/ 10/ 12 1016.2R   1/ 5

$$
FLZ011-016>038-118-127-128-134-139-239-041600-
NORTH FLORIDA

CITY           SKY/WX    TMP DP  RH WIND       PRES   REMARKS
MARIANNA       SUNNY     85  74  69 N5        30.00S
TALLAHASSEE    MOSUNNY   88  72  58 N7        30.00R
PERRY          SUNNY     85  73  68 CALM      30.01R
CROSS CITY       N/A     87  74  64 CALM      30.00S HX  95
LAKE CITY      FAIR      84  77  79 CALM      30.00S
GAINESVILLE    MOSUNNY   87  76  69 VRB3      30.00S HX  97
MAYPORT NAS    PTSUNNY   88  75  65 VRB6      29.99R HX  97
JACKSONVILLE   MOSUNNY   86  75  69 CALM      29.98S HX  95
JAX NAS        PTSUNNY   90  74  59 N3        30.00R HX  99
JAX CRAIG      MOSUNNY   89  73  59 N5        29.99R HX  97
JAX CECIL      SUNNY     86  75  70 NE6       29.99S HX  95
FERNANDINA BEA FAIR      90  73  58 NE5       29.98R HX  98
ST AUGUSTINE   MOSUNNY   86  75  69 NE8       30.00R HX  95

STATION/POSITION SKY/WX   TEMP    WIND        PRES    WAVE   SWELL
                          AIR SEA DIR/SP/G            HT/PER HT/PER
                          (F)     (DEG/KT/KT) (MB)    (FT/S) (FT/S)
SHELL POINT                81     350/  5/  6   N/A
KEATON BEACH               84     320/  1/  3 1016.3R
CEDAR KEY                  80     250/  4/  6 1016.8R
FERNANDINA                 83 85   10/  4/  5 1014.6S
30.7N   81.3W                 85                N/A     1/ 9
MAYPORT                    84 86  340/  5/  8 1015.6R
31.4N   80.9W              82 84  340/  6/  6 1015.5R   1/ 8   2/ 8
ST AUGUSTINE               83 84  360/  7/  8 1016.5R

$$
FLZ040-043>046-052-053-057-058-063-144-041600-
INTERIOR CENTRAL FLORIDA

CITY           SKY/WX    TMP DP  RH WIND       PRES   REMARKS
OCALA          SUNNY     82  73  74 CALM      30.01S
THE VILLAGES     N/A     84  79  84 CALM      29.91S HX  96
LEESBURG       CLOUDY    83  77  82 NW6       30.02R
SANFORD        PTSUNNY   86  76  71 N7        30.00R HX  96
ORLANDO EXEC   MOSUNNY   88  75  65 N7        30.00R HX  97
ORLANDO INTL   PTSUNNY   87  73  62 NW7       30.00R
KISSIMMEE      MOSUNNY   88  79  74 NW8       30.00R HX 102
WINTER HAVEN   PTSUNNY   83  77  82 NW6       30.02R
LAKELAND       MOSUNNY   84  77  79 N5        30.01R
BARTOW         PTSUNNY   84  75  74 NW6       30.02R
OKEECHOBEE     SUNNY     86  73  66 N6        30.00S

$$
FLZ041-047-054-059-064-141-147-041600-
EAST CENTRAL FLORIDA

CITY           SKY/WX    TMP DP  RH WIND       PRES   REMARKS
ORMOND BEACH   SUNNY    N/A N/A N/A VRB3      30.00R
DAYTONA BEACH  PTSUNNY   86  76  71 N7        30.00R HX  96
NEW SMYRNA BEA PTSUNNY   84  77  79 NW7       30.01R
CAPE CANAVERAL MOSUNNY   89  78  70 VRB7      29.98R HX 104
PATRICK AFB    MOSUNNY   87  78  75 N8        29.99R HX 100
MELBOURNE      MOSUNNY   88  76  67 VRB6      29.99R HX  99
VERO BEACH     MOSUNNY   90  74  59 VRB3      29.99S HX  99
FT PIERCE      SUNNY     90  74  59 NW6       29.99R HX  99

STATION/POSITION SKY/WX   TEMP    WIND        PRES    WAVE   SWELL
                          AIR SEA DIR/SP/G            HT/PER HT/PER
                          (F)     (DEG/KT/KT) (MB)    (FT/S) (FT/S)
28.5N   80.2W              83 86  320/ 10/ 12 1015.4R
28.9N   78.5W              81 85  240/  6/  8 1015.5R
TRIDENT PIER               85 86  310/  6/  9 1015.7R
28.4N   80.5W                 85                N/A     1/13
27.5N   80.2W                 83                N/A     1/13

$$
FLZ050-056-061-142-242-148-248-149-249-151-251-155-255-
160-260-041600-
WEST CENTRAL FLORIDA

CITY           SKY/WX    TMP DP  RH WIND       PRES   REMARKS
CRYSTAL RIVER  LGT RAIN  77  77 100 CALM      30.01F
INVERNESS      RAIN      79  77  94 CALM      30.02R
BROOKSVILLE    LGT RAIN  81  76  84 NW6       30.02F
CLEARWATER     PTSUNNY   87  75  67 NE6       30.00S HX  96
TAMPA INTL     LGT RAIN  86  76  71 VRB7      30.00S HX  96
TAMPA EXEC     PTSUNNY   90  77  66 N3        30.01S HX 102
PLANT CITY     PTSUNNY   88  79  74 N5        30.02F HX 102
MACDILL AFB    PTSUNNY   89  80  73 N6        30.00S HX 105
PETER O KNIGHT PTSUNNY   90  77  66 NE8       30.00S HX 102
ST PETERSBURG  PTSUNNY   88  74  63 N6        29.98S HX  96
SARASOTA       PTSUNNY   88  75  65 N9        29.99R HX  97
VENICE         FAIR      86  75  70 NW7       30.01S HX  95

STATION/POSITION SKY/WX   TEMP    WIND        PRES    WAVE   SWELL
                          AIR SEA DIR/SP/G            HT/PER HT/PER
                          (F)     (DEG/KT/KT) (MB)    (FT/S) (FT/S)
CEDAR KEY                  80     250/  4/  6 1016.8R
28.5N   84.5W              85 86  330/ 10/ 12 1016.2R   1/ 5
27.3N   84.2W                 86                N/A     1/ 6
CLEARWATER BEACH           84 86  330/ 12/ 16 1016.0R
MIDDLE TAMPA BAY                  220/  6/ 10 1016.0R
VENICE                     86 87  330/  6/  7 1015.6R

$$
FLZ066-069-070-075>078-162-262-165-265-041600-
SOUTHWEST FLORIDA AND KEYS

CITY           SKY/WX    TMP DP  RH WIND       PRES   REMARKS
PUNTA GORDA    MOSUNNY   88  77  69 VRB6      30.02R HX 100
FT MYERS       MOSUNNY   87  74  64 N5        30.00R HX  95
SOUTHWEST INTL MOSUNNY   89  74  60 NE3       30.00S HX  98
NAPLES         MOSUNNY   90  73  58 NE5       30.00R HX  98
MARCO ISLAND   MOSUNNY   88  73  62 N3        30.00S HX  96
MARATHON       CLOUDY    87  78  74 N7        30.00R HX 100
KEY WEST NAS   CLOUDY    87  76  69 VRB3      30.01R HX  97
KEY WEST INTL  CLOUDY    87  77  72 N3        30.01R HX  99

STATION/POSITION SKY/WX   TEMP    WIND        PRES    WAVE   SWELL
                          AIR SEA DIR/SP/G            HT/PER HT/PER
                          (F)     (DEG/KT/KT) (MB)    (FT/S) (FT/S)
VENICE                     86 87  330/  6/  7 1015.6R
NAPLES           NOT AVBL
26.0N   85.6W              85 87  310/  2/  4 1016.2R   1/ 5   2/ 5
DRY TORTUGAS                                    N/A
NW FL BAY                  85      10/  5/  6 1015.7
SAND KEY                   87     340/  1     1016.2R
LONG KEY                   84 89  360/  4/  5 1016.8R
MOLASSES REEF              85 87     CALM     1016.0R

$$
FLZ067-068-071>074-168-172>174-041600-
SOUTHEAST FLORIDA

CITY           SKY/WX    TMP DP  RH WIND       PRES   REMARKS
W PALM BEACH   MOSUNNY   87  75  67 NW5       30.00R HX  96
FT LAUDER-EXEC MOSUNNY   87  74  64 N6        29.99R HX  95
FT LAUDERDALE  MOSUNNY   89  76  65 NW8       29.99R HX 100
POMPANO BEACH  MOSUNNY   88  74  63 NW6       29.99S HX  96
PEMBROKE PINES MOSUNNY   88  74  63 N8        30.01R HX  96
OPA LOCKA      MOSUNNY   88  75  65 NW6       30.00R HX  97
MIAMI          MOSUNNY   88  74  63 NW3       29.99S HX  96
WEST KENDALL   SUNNY     86  74  67 N6        29.99S
HOMESTEAD      SUNNY     88  72  58 VRB1      29.99S HX  95

STATION/POSITION SKY/WX   TEMP    WIND        PRES    WAVE   SWELL
                          AIR SEA DIR/SP/G            HT/PER HT/PER
                          (F)     (DEG/KT/KT) (MB)    (FT/S) (FT/S)
PORT EVERGLADES            86     290/  6/  9 1015.7R
VIRGINIA KEY               85 87  250/  3/  5 1015.1R
LAKE WORTH                 84 87  310/  6/  7 1015.1R
FOWEY ROCKS                84 87  290/  3/  4 1015.8R
SETTLEMENT POINT           85     280/  8/ 10 1016.5R

$$



USA.gov is the U.S. government's official web portal to all federal, state and local government web resources and services.